Location: Sternwarte Stuttgart
(48.7824°N, 9.1965°E)
Time: 13:02:51
(UTC+00:00)

Daily predictions for brighter satellites

Satellite Brightness Start Highest point End
(mag) Time Altitude Azimuth Time Altitude Azimuth Time Altitude Azimuth
Meteor 1-19 Rocket 4.4 18:47:17 10° N 18:53:13 86° ENE 18:59:02 10° SSE
Cosmos 2360 Rocket 3.2 18:49:47 10° SSE 18:54:07 23° ESE 18:58:27 10° NE
Cosmos 1980 Rocket 2.9 18:49:22 10° SW 18:54:55 62° WNW 19:00:30 10° NNE
COSMOS 2428 4.5 18:57:03 10° ESE 18:58:55 12° E 19:00:45 10° ENE
H-2A R/B 3.8 18:56:15 10° E 18:58:57 15° NE 19:01:38 10° NNE
Cosmos 220 Rocket 4.2 18:54:49 10° NNW 18:59:04 55° ENE 19:03:20 10° SE
Cosmos 2266 Rocket 4.3 18:53:27 10° SSE 18:59:05 43° E 19:04:45 10° NNE
SL-8 R/B 3.8 18:58:04 10° W 19:02:51 75° SSW 19:07:38 10° ESE
Cosmos 1025 Rocket 3.8 19:00:51 10° N 19:04:45 33° ENE 19:08:38 10° SE
Cosmos 2315 Rocket 4.5 18:58:57 10° N 19:04:53 43° ENE 19:10:49 10° SE
Cosmos 1300 Rocket 3.7 19:03:33 10° S 19:07:43 51° E 19:11:55 10° NNE
Okean 1 Rocket 3.7 19:04:21 10° SSE 19:08:20 36° E 19:12:21 10° NNE
CZ-4B DEB 4.0 19:06:07 10° ESE 19:08:23 21° ENE 19:10:39 10° NNE
SPOT 5 4.4 19:06:34 10° ESE 19:09:49 19° ENE 19:12:59 10° NNE
Lacrosse 5 2.4 19:05:43 10° SSW 19:10:19 36° SE 19:14:57 10° ENE
Meteor 1-5 Rocket 4.4 19:05:54 10° SSE 19:10:53 43° E 19:15:52 10° NNE
Meteor 2-4 Rocket 3.8 19:11:44 10° NNW 19:17:19 86° W 19:23:02 10° S
USA 215 4.0 19:11:44 10° ENE 19:18:04 54° NNW 19:24:25 10° W
NOSS 2-3 (C) 4.0 19:13:43 10° SSW 19:18:24 59° SE 19:23:58 10° NE
USA 186 2.9 19:15:16 10° S 19:18:33 47° W 19:21:49 10° NNW
SOZ 4.2 19:17:16 10° WNW 19:20:11 89° N 19:21:48 15° ESE
Okean 1-7 Rocket 4.0 19:16:12 10° N 19:20:33 46° ENE 19:24:54 10° SSE
EXPRESS MD2 3.0 19:19:05 10° SW 19:21:45 59° SSE 19:26:32 10° ENE
Cosmos 1452 Rocket 4.4 19:18:34 10° SW 19:23:45 54° WNW 19:28:58 10° NNE
SeaSat 1 2.7 19:19:06 10° NE 19:23:53 47° ESE 19:28:38 10° S
Cosmos 1420 Rocket 4.3 19:19:00 10° SSW 19:24:10 73° WNW 19:29:24 10° NNE
NOSS 3-2 (A) 4.4 19:18:00 10° NW 19:25:03 52° NE 19:32:07 13° ESE
Resurs 01 Rocket 3.0 19:23:28 10° SSW 19:27:40 40° W 19:31:53 10° NNW
USA 238 DEB 3.9 19:20:54 10° NW 19:28:01 76° NE 19:34:25 13° SE
USA 238 3.9 19:20:59 10° NW 19:28:06 75° NE 19:34:31 14° SE
Helios 1A 3.0 19:25:08 10° SSE 19:29:21 70° ENE 19:33:36 10° N
Cosmos 2151 Rocket 4.5 19:28:35 10° SSW 19:32:52 53° WNW 19:37:12 10° N
SAR-Lupe-4 4.2 19:30:25 15° SE 19:33:03 40° ENE 19:36:27 10° N
SJ-11-01 4.4 19:28:26 10° S 19:33:06 79° WSW 19:37:48 10° NNW
Cosmos 1536 2.9 19:29:40 10° S 19:33:45 87° W 19:37:50 10° N
Cosmos 1939 Rocket 3.2 19:30:40 10° S 19:34:36 67° W 19:38:31 10° NNW
Tiangong 1 3.4 19:36:45 10° SW 19:37:18 10° SSW 19:37:51 10° SSW
Spot 1 4.5 19:32:12 10° SSE 19:37:19 73° ENE 19:42:18 10° NNW
ATLAS 3B R/B 2.7 19:34:07 10° NW 19:40:58 86° SW 19:46:31 15° SE
Cosmos 405 4.2 19:42:03 20° ESE 19:43:16 24° E 19:46:13 10° NE
USA 245 4.3 19:42:04 17° SE 19:45:02 35° ENE 19:48:38 10° N
Terra 3.6 19:45:50 13° E 19:48:06 17° ENE 19:51:11 10° NNE
ARGOS 3.4 19:45:07 17° SE 19:49:08 51° ENE 19:54:20 10° N
SAR-Lupe-1 4.3 19:47:42 21° SE 19:49:50 52° ENE 19:53:21 10° N
ATLAS CENTAUR R/B 3.8 19:51:48 10° N 19:52:35 10° NNE 19:53:22 10° NNE
Cosmos 2263 Rocket 3.5 19:51:06 10° NW 19:56:18 37° WSW 20:01:27 10° S
Cosmos 1892 Rocket 3.8 19:52:34 10° N 19:56:55 52° ENE 19:59:26 23° SE
NOSS 2-3 (D) 4.1 19:53:28 10° SW 19:58:17 79° NW 20:04:07 10° NE
Cosmos 1818 4.4 19:53:51 10° S 19:58:24 28° ESE 20:03:01 10° NE
Molniya-1 3.5 19:57:26 10° NW 20:00:01 85° NE 20:01:25 32° SE
SPOT 1/Viking Rocket 4.2 19:57:09 21° ESE 20:00:08 41° ENE 20:05:01 10° N
Cosmos 2278 Rocket 3.3 19:56:40 10° NNW 20:01:45 32° NE 20:05:02 19° E
Cosmos 1844 Rocket 2.8 19:57:36 10° NNW 20:03:17 67° ENE 20:06:49 24° SE
Cosmos 1666 4.5 20:04:12 17° E 20:04:12 17° E 20:06:29 10° NE
NOSS 3-2 (C) 4.2 19:57:33 10° NW 20:04:47 63° NE 20:10:22 21° ESE
Cosmos 2322 Rocket 3.2 20:00:06 10° SW 20:05:38 51° NW 20:11:12 10° NNE
Abrixas rocket 2.3 20:04:10 10° W 20:07:25 60° SSW 20:08:21 40° SE
Helios 1B rocket 2.4 20:04:21 10° NNE 20:08:28 87° WNW 20:12:35 10° SSW
ERS-1 Rocket 3.0 20:06:47 17° SSE 20:10:44 82° WSW 20:15:48 10° NNW
Aureole 3 Rocket 4.4 20:03:55 10° N 20:12:42 77° ENE 20:17:27 20° SSE
Cosmos 2237 4.2 20:08:21 10° S 20:13:55 59° ESE 20:19:31 10° NE
Cosmos 1544 Rocket 3.9 20:12:28 28° SSE 20:14:22 46° E 20:18:39 10° NNE
Nadezhda 1 Rocket 4.3 20:09:56 10° N 20:16:04 50° ENE 20:19:25 26° SE
MetOp-B 4.1 20:13:10 19° SSE 20:17:05 85° WSW 20:22:29 10° NNW
SL-16 R/B 3.5 20:13:08 10° WSW 20:18:29 42° NW 20:23:54 10° NNE
Cosmos 1238 Rocket 4.1 20:14:31 10° N 20:21:19 89° ENE 20:25:59 20° S
Cosmos 2219 Rocket 2.9 20:20:52 29° SE 20:22:09 32° ESE 20:27:06 10° NE
Cosmos 1244 Rocket 4.4 20:16:21 10° S 20:22:30 84° E 20:28:40 10° N
Cosmos 1743 3.4 20:22:27 34° E 20:22:30 34° E 20:26:00 10° NNE
GP-B 4.2 20:20:28 10° NNE 20:24:14 26° E 20:24:35 26° E
ATLAS 2AS CENTAUR R/B 3.2 20:17:15 10° SW 20:25:07 81° NW 20:33:20 10° NE
Cosmos 1455 Rocket 3.2 20:25:06 35° SSE 20:26:40 53° E 20:31:01 10° NNE
CENTAUR R/B 3.7 20:22:00 10° NW 20:29:15 47° NE 20:34:53 20° E
Cosmos 2322 3.7 20:24:42 10° SSW 20:30:22 85° WNW 20:36:07 10° NNE
Cosmos 724 4.2 20:27:56 10° NW 20:33:54 88° NE 20:36:34 34° SE
NOSS 3-4 (A) 4.0 20:34:38 32° SE 20:35:54 34° ESE 20:41:38 10° NE
NOSS 3-4 (C) 4.0 20:34:52 32° SE 20:36:01 34° ESE 20:41:44 10° NE
Meteor 1-29 4.0 20:33:07 10° N 20:36:24 45° WNW 20:39:13 13° SW
Cosmos 2360 Rocket 2.6 20:32:02 10° SW 20:37:38 64° WNW 20:43:15 10° NNE
H-2A R/B 1.9 20:35:24 34° SSE 20:37:41 85° ENE 20:42:39 10° NNW
Meteor 1-12 Rocket 4.1 20:34:42 21° S 20:38:36 77° E 20:44:16 10° NNE
SL-08 R/B 4.4 20:34:11 20° S 20:38:41 75° E 20:45:00 10° NNE
BREEZE-M DEB (TANK) 3.7 20:35:58 10° WSW 20:40:01 83° SSE 20:56:06 10° ENE
COSMOS 2428 2.6 20:36:25 10° SSW 20:42:06 70° ESE 20:47:50 10° NNE
Cosmos 1844 3.7 20:38:32 10° NNW 20:44:14 82° WSW 20:46:40 36° SSE
Cosmos 1302 Rocket 4.0 20:41:16 10° SSW 20:46:34 87° WNW 20:51:53 10° NNE
SPOT 5 3.0 20:45:21 32° S 20:47:30 66° WSW 20:52:05 10° NNW
BREEZE-M DEB (TANK) 4.4 20:26:04 10° SW 20:50:22 71° SSE 20:55:08 14° ENE
SL-08 RB Rocket 4.1 20:49:09 32° SSW 20:51:05 59° W 20:55:34 10° NNW
Cosmos 968 Rocket 4.1 20:46:30 10° NNW 20:51:22 41° ENE 20:52:36 35° E
Cosmos 1975 3.2 20:49:50 28° SSW 20:51:45 61° WNW 20:55:43 10° N
Lacrosse 5 2.3 20:48:05 10° WSW 20:53:07 63° NNW 20:58:11 10° NE
Cosmos 1500 4.5 20:51:10 15° SW 20:54:00 40° WNW 20:57:41 10° N
Cosmos 2333 Rocket 2.4 20:54:26 43° SE 20:55:11 46° ESE 21:00:34 10° NE
CARTOSAT-1 3.5 20:59:03 60° ESE 20:59:30 64° ENE 21:03:49 10° N
USA 215 4.3 20:54:20 10° ENE 21:00:27 44° N 21:06:34 10° WNW
SeaSat 1 4.2 20:56:53 10° NNE 21:01:17 33° NW 21:05:39 10° WSW
Cosmos 2333 4.1 20:56:33 12° SSW 21:01:47 89° ESE 21:07:26 10° NNE
DNEPR-1 R/B 4.4 20:58:56 10° NNW 21:03:04 41° NE 21:04:04 36° ENE
Cosmos 1602 Rocket 3.4 21:03:41 10° N 21:08:02 87° W 21:08:28 72° S
Cosmos 2237 Rocket 2.6 21:10:15 41° E 21:10:15 41° E 21:15:08 10° NE
Landsat 7 3.8 21:08:53 53° S 21:09:57 75° WSW 21:14:45 10° NNW
H-2A R/B 2.5 21:12:13 47° ENE 21:12:17 47° ENE 21:16:33 10° N
NOSS 0 Rocket 4.0 21:11:21 48° SE 21:12:23 53° ESE 21:18:26 10° NE
Cosmos 1745 Rocket 4.1 21:12:10 27° SSW 21:15:40 74° W 21:21:52 10° N
NOSS 3-2 (A) 4.4 21:08:58 10° NW 21:16:12 55° WSW 21:19:31 34° S
Cosmos 2292 Rocket 4.4 21:12:55 34° S 21:16:12 86° E 21:21:46 10° N
Meteor 1-4 Rocket 4.1 21:18:03 28° NE 21:18:03 28° NE 21:20:12 10° NNE
Cosmos 1980 3.8 21:16:31 50° ESE 21:16:35 50° ESE 21:22:03 10° NE
COSMOS 2455 3.4 21:13:36 10° NNW 21:19:26 47° NE 21:21:18 36° E
Cosmos 1437 Rocket 3.5 21:24:07 47° WSW 21:24:39 50° WNW 21:28:31 10° N
Terra 1.8 21:24:43 65° SSW 21:25:18 75° WSW 21:30:06 10° NNW
ARGOS Delta rocket 3.8 21:23:08 10° NNE 21:27:23 61° ENE 21:27:23 61° ENE
Aureole 2 Rocket 3.8 21:28:57 34° NNW 21:28:57 34° NNW 21:31:04 10° NNE
ATLAS 3B R/B 4.4 21:26:07 10° WNW 21:30:40 20° WSW 21:33:46 14° SW
DMSP B5D2-2 4.1 21:25:49 10° NNE 21:31:05 76° WNW 21:32:37 47° SSW
Cosmos 1626 Rocket 4.2 21:27:13 10° NNW 21:31:23 47° W 21:31:47 45° WSW
ATLAS CENTAUR R/B 4.0 21:15:36 10° WNW 21:31:37 61° NNE 21:34:53 29° E
ATLAS CENTAUR R/B 2.4 21:29:05 10° NNW 21:32:03 35° NNE 21:32:03 35° NNE
BREEZE M DEB (TANK) 4.4 21:16:18 10° WSW 21:33:51 67° SSE 21:36:03 38° E
Cosmos 2297 3.8 21:28:36 10° NNW 21:34:15 62° ENE 21:35:07 55° E
Cosmos 1666 3.7 21:39:09 41° W 21:39:15 41° WNW 21:42:56 10° N
EXPRESS MD2 4.2 21:35:47 10° W 21:39:48 81° N 21:45:06 21° E
Cosmos 1707 4.2 21:37:55 10° N 21:40:23 30° NE 21:40:23 30° NE
Cosmos 1818 4.1 21:36:18 10° SW 21:41:40 59° NW 21:47:05 10° NE
SL-24 R/B 4.5 21:38:35 10° N 21:43:05 63° ENE 21:43:05 63° ENE
RESURS DK-1 4.2 21:47:03 23° NE 21:47:03 23° NE 21:48:47 10° NE
Cosmos 2278 Rocket 2.5 21:40:36 10° NW 21:46:08 54° WSW 21:46:52 50° SW
Cosmos 1844 Rocket 4.4 21:42:21 10° NW 21:46:40 23° WSW 21:48:28 19° SW
IGS 5A 4.5 21:51:05 39° W 21:51:05 39° W 21:54:48 10° NNW
USA 81 4.1 21:46:01 10° N 21:51:17 67° W 21:51:50 62° SW
SL-08 ROCKET BODY 4.3 21:53:03 64° ESE 21:53:16 65° E 21:59:03 10° NNE
Cosmos 1825 Rocket 3.9 21:50:30 10° NNW 21:54:10 62° NNW 21:54:10 62° NNW
CZ-2C R/B 3.4 21:58:11 49° NE 21:58:11 49° NE 22:02:33 10° N
Cosmos 1777 Rocket 4.0 21:53:40 10° NNW 21:58:56 70° ENE 21:58:56 70° ENE
Cosmos 2184 Rocket 4.2 22:00:03 53° E 22:00:10 53° E 22:06:12 10° NNE
CZ-2C R/B 3.6 21:55:30 10° NNE 21:59:34 34° ENE 21:59:34 34° ENE
Cosmos 2074 Rocket 4.1 22:00:28 56° E 22:00:42 56° E 22:06:48 10° NNE
Spot 4 4.0 22:01:01 68° W 22:01:01 68° W 22:05:33 10° NNW
GP-B 4.3 21:57:33 10° NNW 22:01:37 35° W 22:02:03 34° W
Cosmos 1340 Rocket 4.1 21:59:18 10° N 22:01:50 35° NNE 22:01:50 35° NNE
Cosmos 2058 Rocket 4.3 22:07:00 34° NE 22:07:00 34° NE 22:09:45 10° NNE
Cosmos 2219 Rocket 3.0 22:02:31 22° WSW 22:05:55 49° NW 22:11:25 10° NNE
Cosmos 1758 Rocket 4.2 22:06:42 10° NNW 22:10:08 53° NNW 22:10:08 53° NNW
H-2A R/B 4.3 22:16:03 12° WSW 22:17:45 14° W 22:20:19 10° WNW
SL-16 R/B 2.5 22:20:09 53° ENE 22:20:09 53° ENE 22:24:47 10° NNE
CENTAUR R/B 3.1 22:12:44 10° NW 22:20:28 67° SW 22:22:03 56° S
Meteor 1-24 Rocket 3.9 22:17:16 10° N 22:23:04 62° ENE 22:23:11 62° E
Cosmos 1943 Rocket 3.9 22:21:26 10° N 22:25:50 24° NE 22:27:49 19° ENE
CZ-4 R/B 4.2 22:21:17 10° N 22:25:46 60° WNW 22:25:46 60° WNW
NOSS 3-4 (A) 3.9 22:21:56 19° WSW 22:26:29 61° NW 22:33:02 10° NE
NOSS 3-4 (C) 3.9 22:22:10 20° WSW 22:26:35 61° NW 22:33:09 10° NE
Meteor 2-13 Rocket 4.4 22:28:38 70° SW 22:29:14 76° W 22:35:25 10° N
Meteor 2-5 Rocket 3.8 22:26:50 10° NNW 22:32:45 76° W 22:32:50 76° WSW
Cosmos 1610 Rocket 4.5 22:33:48 67° E 22:33:48 67° E 22:40:02 10° NNE
Lacrosse 5 3.5 22:32:14 10° WNW 22:36:50 33° N 22:41:27 10° ENE
Cosmos 2333 Rocket 3.5 22:36:22 20° WSW 22:39:36 36° NW 22:44:48 10° NNE
ALOS 2 3.5 22:42:47 46° N 22:42:47 46° N 22:45:56 10° NNW
USA 215 3.6 22:39:36 30° E 22:42:54 62° NNE 22:49:22 10° NW
H-2A R/B 4.2 22:49:21 20° WNW 22:49:21 20° WNW 22:51:54 10° NW
In-Cosmos 22 4.2 22:46:35 10° N 22:51:19 69° NNE 22:51:19 69° NNE
Cosmos 2369 Rocket 2.7 22:46:52 10° NNW 22:52:28 50° NE 22:52:46 50° ENE
Cosmos 1898 Rocket 4.2 22:48:23 10° NNW 22:53:18 47° NE 22:53:18 47° NE
Cosmos 2237 Rocket 3.3 22:52:01 30° W 22:53:59 39° NW 22:59:15 10° NNE
CZ-4B R/B 4.3 22:54:02 10° N 22:58:17 42° WNW 22:58:17 42° WNW
Cosmos 2154 Rocket 3.9 22:59:43 80° E 22:59:43 80° E 23:05:52 10° N
COSMOS 2455 3.7 22:59:44 10° NW 23:04:26 38° W 23:04:26 38° W
Mayak 0.5 23:02:38 10° NNE 23:04:50 29° NNE 23:04:50 29° NNE
ATLAS CENTAUR R/B 4.1 23:08:18 10° WNW 23:08:18 10° WNW 23:08:18 10° WNW
RESURS DK-1 4.5 23:22:56 22° NW 23:23:04 22° NW 23:26:23 10° N
Cosmos 1953 4.3 23:28:01 26° NNE 23:28:01 26° NNE 23:29:56 10° NNE
SL-8 Rocket 4.1 23:26:40 61° E 23:26:40 61° E 23:32:42 10° NNE
Cosmos 962 Rocket 4.4 23:34:40 78° W 23:34:42 78° W 23:41:02 10° N
Cosmos 2298 Rocket 4.3 23:31:04 10° NNW 23:35:40 65° N 23:35:40 65° N
Cosmos 2218 Rocket 4.1 23:39:57 65° E 23:40:04 65° E 23:46:23 10° NNE
CZ-2C R/B 3.6 23:35:49 10° N 23:40:48 39° WNW 23:41:04 39° WNW
Cosmos 2263 4.3 23:40:49 10° NNW 23:45:49 71° NNW 23:45:49 71° NNW
